STARLINK-35405

Last updated on Fri Dec 12 2025 00:02:05 GMT+0000 (Coordinated Universal Time)

1 66440U 25259U 25345.58335648 .00093707 00000+0 22296-2 0 9992 2 66440 43.0004 54.2327 0001479 272.2210 313.9938 15.40611561 6094
UTC large
Height (km)
Speed (km/s)
/
Latitude / Longitude
Inclination (degrees)
Orbital Period (minutes)
Azimuth
Elevation
Range (km)
Doppler Factor

Next 0 passes for location: London (51.5072 / 0.1276)

Sorry there are no passes over London.